Change the Weather History Date:

Monday, July 1, 2013

  Actual Average Record
Temperature  
Mean Temperature 65 °F -  
Max Temperature 68 °F 80 °F 95 °F (1953)
Min Temperature 62 °F 61 °F 44 °F (1988)
Growing Degree Days 15 (Base 50)    
Moisture  
Dew Point 61 °F    
Average Humidity 86    
Maximum Humidity 94    
Minimum Humidity 73    
Precipitation  
Precipitation 0.76 in - - ()
Sea Level Pressure  
Sea Level Pressure 29.93 in    
Wind  
Wind Speed 12 mph (NNE)    
Max Wind Speed 21 mph    
Max Gust Speed 32 mph    
Visibility 7 miles    
Events Rain , Thunderstorm    
Averages and records for this station are not official NWS values.
T = Trace of Precipitation, MM = Missing Value Source: NWS Daily Summary

Daily Weather History Graph

Daily Weather History Graph

Search for Another Location

Airport or City:

Trip Planner

Search our weather history database for the weather conditions in past years. The results will help you decide how hot, cold, wet, or windy it might be!

Date:

Astronomy

Jul. 01, 2013 Rise Set
Actual Time 6:06 AM EDT 9:10 PM EDT
Civil Twilight 5:32 AM EDT 9:44 PM EDT
Nautical Twilight 4:50 AM EDT 10:26 PM EDT
Astronomical Twilight 3:59 AM EDT 11:16 PM EDT
Moon 1:37 AM EDT (7/1) 3:23 PM EDT (7/1)
Length of Visible Light 16h 11m
Length of Day
15h 04m
Waning Crescent, 35% of the Moon is Illuminated
Jul 1
Waning Crescent
Jul 8
New
Jul 15
First Quarter
Jul 22
Full
Jul 29
Last Quarter

Hourly Weather History & Observations

Time (EDT) Temp. Dew Point Humidity Pressure Visibility Wind Dir Wind Speed Gust Speed Precip Events Conditions
12:53 AM 66.0 °F 60.1 °F 81% 29.87 in 10.0 mi NNE 12.7 mph - N/A   Clear
1:53 AM 64.9 °F 57.9 °F 78% 29.88 in 10.0 mi NE 10.4 mph - N/A   Clear
2:53 AM 64.0 °F 55.0 °F 73% 29.87 in 10.0 mi NNE 11.5 mph - N/A   Clear
3:53 AM 63.0 °F 57.0 °F 81% 29.86 in 10.0 mi NNE 9.2 mph - N/A   Mostly Cloudy
4:53 AM 64.0 °F 59.0 °F 84% 29.87 in 10.0 mi North 9.2 mph - N/A   Mostly Cloudy
5:45 AM 64.4 °F 59.0 °F 83% 29.90 in 10.0 mi North 8.1 mph - 0.00 in Rain Light Rain
5:53 AM 64.0 °F 60.1 °F 87% 29.88 in 10.0 mi North 9.2 mph - 0.00 in Rain Light Rain
6:27 AM 62.6 °F 59.0 °F 88% 29.91 in 10.0 mi North 11.5 mph - 0.00 in   Overcast
6:51 AM 62.6 °F 57.2 °F 82% 29.90 in 10.0 mi North 11.5 mph - 0.00 in   Mostly Cloudy
6:53 AM 63.0 °F 57.9 °F 84% 29.88 in 10.0 mi North 12.7 mph - 0.00 in   Mostly Cloudy
7:02 AM 62.6 °F 57.2 °F 82% 29.90 in 10.0 mi North 10.4 mph - N/A   Mostly Cloudy
7:53 AM 64.0 °F 60.1 °F 87% 29.89 in 9.0 mi NNE 10.4 mph - 0.00 in Rain Light Rain
8:53 AM 66.0 °F 62.1 °F 87% 29.89 in 10.0 mi NNE 9.2 mph - 0.00 in   Overcast
9:30 AM 68.0 °F 62.6 °F 83% 29.91 in 10.0 mi NE 12.7 mph - N/A   Overcast
9:53 AM 68.0 °F 62.1 °F 81% 29.89 in 10.0 mi NE 13.8 mph - N/A   Overcast
10:09 AM 68.0 °F 62.6 °F 83% 29.91 in 10.0 mi NE 13.8 mph - 0.00 in Rain , Thunderstorm Light Rain
10:53 AM 66.0 °F 62.1 °F 87% 29.92 in 4.0 mi NE 10.4 mph - 0.03 in Rain , Thunderstorm Light Rain
11:03 AM 66.2 °F 62.6 °F 88% 29.94 in 3.0 mi NE 8.1 mph - 0.03 in Rain Rain
11:15 AM 64.4 °F 62.6 °F 94% 29.95 in 2.5 mi NNE 9.2 mph - 0.06 in Rain Rain
11:36 AM 64.4 °F 62.6 °F 94% 29.95 in 2.0 mi NNE 6.9 mph - 0.15 in Rain Heavy Rain
11:47 AM 64.4 °F 62.6 °F 94% 29.95 in 1.8 mi NNE 8.1 mph - 0.21 in Rain Rain
11:53 AM 64.9 °F 63.0 °F 93% 29.94 in 1.0 mi NE 9.2 mph - 0.27 in Rain Heavy Rain
12:05 PM 64.4 °F 62.6 °F 94% 29.96 in 1.0 mi NNE 12.7 mph 19.6 mph 0.15 in Rain Heavy Rain
12:18 PM 64.4 °F 62.6 °F 94% 29.96 in 1.8 mi NNE 9.2 mph - 0.20 in Rain Rain
12:27 PM 64.4 °F 62.6 °F 94% 29.96 in 2.0 mi NNE 6.9 mph - 0.23 in Rain Rain
12:53 PM 64.9 °F 63.0 °F 93% 29.94 in 3.0 mi North 9.2 mph - 0.29 in Rain Rain
1:02 PM 64.4 °F 62.6 °F 94% 29.96 in 4.0 mi NNE 11.5 mph - 0.01 in Rain Light Rain
1:43 PM 64.4 °F 62.6 °F 94% 29.96 in 2.5 mi North 11.5 mph - 0.07 in Rain Rain
1:53 PM 64.9 °F 63.0 °F 93% 29.95 in 3.0 mi NNE 12.7 mph - 0.08 in Rain Light Rain
2:04 PM 64.4 °F 62.6 °F 94% 29.96 in 2.5 mi NNE 13.8 mph - 0.04 in Rain Rain
2:26 PM 64.4 °F 62.6 °F 94% 29.94 in 4.0 mi NNE 20.7 mph 27.6 mph 0.09 in Rain Light Rain
2:34 PM 64.4 °F 62.6 °F 94% 29.94 in 6.0 mi NNE 19.6 mph 28.8 mph 0.09 in Rain Light Rain
2:48 PM 64.4 °F 62.6 °F 94% 29.93 in 7.0 mi NE 19.6 mph 25.3 mph 0.09 in Rain Light Rain
2:53 PM 66.0 °F 63.0 °F 90% 29.92 in 7.0 mi NE 18.4 mph 25.3 mph 0.09 in Rain Light Rain
3:40 PM 68.0 °F 62.6 °F 83% 29.95 in 9.0 mi NNE 19.6 mph 27.6 mph 0.00 in   Overcast
3:53 PM 68.0 °F 63.0 °F 84% 29.94 in 9.0 mi NE 15.0 mph 27.6 mph 0.00 in   Overcast
4:53 PM 66.9 °F 60.1 °F 79% 29.94 in 6.0 mi NNE 20.7 mph 28.8 mph N/A   Haze
5:44 PM 66.2 °F 60.8 °F 83% 29.96 in 10.0 mi NE 19.6 mph 27.6 mph N/A   Overcast
5:53 PM 66.9 °F 60.1 °F 79% 29.95 in 10.0 mi NE 18.4 mph 29.9 mph N/A   Overcast
6:53 PM 66.9 °F 60.1 °F 79% 29.96 in 10.0 mi NE 15.0 mph 26.5 mph N/A   Overcast
7:33 PM 64.4 °F 59.0 °F 83% 29.97 in 8.0 mi NNE 20.7 mph 32.2 mph N/A   Overcast
7:53 PM 64.9 °F 59.0 °F 81% 29.96 in 8.0 mi NE 17.3 mph 25.3 mph N/A   Overcast
8:53 PM 64.9 °F 59.0 °F 81% 29.96 in 8.0 mi NNE 16.1 mph - N/A   Overcast
9:53 PM 64.0 °F 60.1 °F 87% 29.97 in 6.0 mi NNE 12.7 mph 23.0 mph N/A   Overcast
10:53 PM 64.9 °F 57.9 °F 78% 29.95 in 9.0 mi NE 17.3 mph - N/A   Overcast
11:04 PM 64.4 °F 57.2 °F 77% 29.97 in 9.0 mi NE 15.0 mph 21.9 mph N/A   Overcast
11:53 PM 66.0 °F 59.0 °F 78% 29.96 in 10.0 mi NE 11.5 mph - N/A   Overcast